Regional Weather Roundup
Issued by NWS

Home | Current Version | Previous Version | Text Only | Print | Product List | Glossary Off
Versions: 1 2 3 4 5 6 7 8 9 10 11 12 13 14 15 16 17 18 19 20 21 22 23 24 25 26 27 28 29 30 31 32 33 34 35 36 37 38 39 40 41 42 43 44 45 46 47 48 49 50

000
ASUS45 KPSR 311410
RWRAZ

ARIZONA HOURLY REGIONAL WEATHER ROUNDUP
NATIONAL WEATHER SERVICE PHOENIX AZ
700 AM MST FRI JUL 31 2015

NOTE: FAIR INDICATES FEW OR NO CLOUDS BELOW 12,000 FEET WITH NO
SIGNIFICANT WEATHER AND/OR OBSTRUCTIONS TO VISIBILITY.

AZZ001>003-036-311500-
NORTHWEST ARIZONA

CITY           SKY/WX    TMP DP  RH WIND       PRES   REMARKS
BULLHEAD CITY  SUNNY     82  66  57 CALM      29.97R
KINGMAN        SUNNY     78  56  46 SE10      30.15R
$$

AZZ004>008-015-016-018-311500-
NORTH CENTRAL ARIZONA

CITY           SKY/WX    TMP DP  RH WIND       PRES   REMARKS
GRAND CANYON   PTSUNNY   63  52  67 NE3       30.41R
WILLIAMS       MOSUNNY   68  54  60 SE5       30.46R
PRESCOTT       SUNNY     69  56  62 VRB5      30.28R
FLAGSTAFF      MOSUNNY   53  52  96 CALM      30.44R
PAYSON         SUNNY     73  55  53 E5        30.30R HAZE
PAGE           MOSUNNY   78  56  46 S7        30.24R
$$

AZZ009>014-017-311500-
NORTHEAST ARIZONA

CITY           SKY/WX    TMP DP  RH WIND       PRES   REMARKS
WINSLOW        MOSUNNY   71  58  63 CALM      30.30R
SAINT JOHNS    SUNNY     65  57  75 CALM      30.34R
SHOW LOW       SUNNY     61  54  77 S6        30.39R
$$

AZZ023-311500-
GREATER PHOENIX AREA

CITY           SKY/WX    TMP DP  RH WIND       PRES   REMARKS
PHOENIX        PTSUNNY   91  60  35 S5        29.96R
GLENDALE       PTSUNNY   88  63  42 CALM      29.98R
LUKE AFB       MOSUNNY   86  63  45 W5        29.96R
DEER VALLEY    MOSUNNY   90  60  36 CALM      29.98R
SCOTTSDALE     MOSUNNY   89  62  40 CALM      29.99R
MESA-GATEWAY   MOSUNNY   86  57  37 SE5       30.00R
CHANDLER       PTSUNNY   88  63  42 N8        29.97R
$$

AZZ027-028-311500-
SOUTHWEST MARICOPA COUNTY AND PINAL COUNTY

CITY           SKY/WX    TMP DP  RH WIND       PRES   REMARKS
CASA GRANDE    PTSUNNY   88  61  40 CALM      29.98R
GILA BEND      FAIR      87  65  47 SE5       29.95R
$$

AZZ503-504-507>509-311500-
SOUTHEAST ARIZONA

CITY           SKY/WX    TMP DP  RH WIND       PRES   REMARKS
TUCSON         CLOUDY    82  66  58 SE7       30.10R
DAVIS-MONTHAN  CLOUDY    81  64  56 SE9       30.09R
RYAN FIELD     SUNNY     81  72  74 CALM      30.08R
NOGALES        CLOUDY    74  64  71 N3        30.18R
SIERRA VISTA   CLOUDY    68  61  78 E7        30.28R
DOUGLAS          N/A    N/A N/A N/A MISG      30.23R
SAFFORD        CLOUDY    79  62  56 E14       30.18R
$$

AZZ020-021-025-026-031-311500-
SOUTHWEST ARIZONA

CITY           SKY/WX    TMP DP  RH WIND       PRES   REMARKS
YUMA           MOSUNNY   92  66  42 CALM      29.91R
$$

CAZ031-033-041-043-047-048-061-311500-
SOUTHERN CALIFORNIA

CITY           SKY/WX    TMP DP  RH WIND       PRES   REMARKS
DOWNTOWN L.A.  CLOUDY    69  65  86 CALM      30.02R
L.A. AIRPORT   CLOUDY    68  65  90 W5        30.03R
SAN DIEGO      CLOUDY    72  65  78 NW5       30.04R
BURBANK        CLOUDY    70  64  81 SE6       30.04R
ONTARIO        MOSUNNY   70  64  81 W3        30.04R
RIVERSIDE      SUNNY     70  65  84 W3        30.04R
PALM SPRINGS   SUNNY     85  67  54 CALM      29.94R
EL CENTRO NAS  PTSUNNY   87  65  47 W7        29.91R
IMPERIAL       MOSUNNY   84  69  60 W3        29.88R
BLYTHE         SUNNY     84  69  60 CALM      29.93R
NEEDLES        SUNNY     82  70  66 W3        29.97R
$$

NVZ020-UTZ003-311500-
SOUTHERN NEVADA-UTAH

CITY           SKY/WX    TMP DP  RH WIND       PRES   REMARKS
LAS VEGAS      PTSUNNY   91  53  27 N5        30.00R
SALT LAKE CITY MOSUNNY   67  36  31 E5        30.25R
$$

NMZ009-TXZ055-311500-
NEW MEXICO-WEST TEXAS

CITY           SKY/WX    TMP DP  RH WIND       PRES   REMARKS
ALBUQUERQUE    PTSUNNY   69  61  75 SE6       30.37R
EL PASO        PTSUNNY   76  65  68 N5        30.23R
$$


........................KEY........................
SKY/WX - SKY CONDITION/WEATHER
TMP    - TEMPERATURE IN FAHRENHEIT
DP     - DEW POINT IN FAHRENHEIT
RH     - RELATIVE HUMIDITY IN PERCENT
WIND   - DIRECTION AND SPEED IN MILES PER HOUR (MPH)
VRB    - VARIABLE WIND DIRECTION
PRES   - MEAN SEA LEVEL PRESSURE IN INCHES OF MERCURY
         F - FALLING PRESSURE   R - RISING PRESSURE
         S - STEADY PRESSURE
VSB    - VISIBILITY IN MILES
HX     - HEAT INDEX IN FAHRENHEIT
WCI    - WIND CHILL INDEX IN FAHRENHEIT
TC     - TEMPERATURE IN CELSIUS WHICH IS ALSO KNOWN AS
         TEMPERATURE IN CENTIGRADE
AFB    - AIR FORCE BASE
         LUKE AFB IS LUKE AIR FORCE BASE
         DAVIS-MONTHAN IS DAVIS-MONTHAN AIR FORCE BASE
NAS    - NAVAL AIR STATION
         EL CENTRO NAS IS EL CENTRO NAVAL AIR STATION
N/A    - NOT AVAILABLE



USA.gov is the U.S. government's official web portal to all federal, state and local government web resources and services.